Regional Weather Roundup
Issued by NWS Burlington, VT

Home | Current Version | Previous Version | Text Only | Print | Product List | Glossary On
Versions: 1 2 3 4 5 6 7 8 9 10 11 12 13 14 15 16 17 18 19 20 21 22 23 24 25 26 27 28 29 30 31 32 33 34 35 36 37 38 39 40 41 42 43 44 45 46 47 48 49 50
000
ASUS41 KBTV 140030
RWRBTV
VERMONT REGIONAL WEATHER ROUNDUP
NATIONAL WEATHER SERVICE BURLINGTON VT
700 PM EST WED DEC 13 2017

NOTE: "FAIR" INDICATES FEW OR NO CLOUDS BELOW 12,000 FEET WITH NO
SIGNIFICANT WEATHER AND/OR OBSTRUCTIONS TO VISIBILITY.

* THESE REPORTS ARE NOT UNDER NWS QUALITY CONTROL AND/OR DO NOT
  REPORT WEATHER SUCH AS PRECIPITATION AND FOG.

VTZ001>019-140100-
_____VERMONT_____


CITY           SKY/WX    TMP DP  RH WIND       PRES   REMARKS
BURLINGTON     PTCLDY    15   3  59 W15G23    29.48R WCI   0
6HR MIN TEMP:  14; 6HR MAX TEMP:  16;

MONTPELIER     CLOUDY    11   5  77 NW12G21   29.41R WCI  -3
6HR MIN TEMP:  10; 6HR MAX TEMP:  13; 6HR PCP: TRACE;

MORRISVILLE    LGT SNOW  10   4  76 VRB3      29.42S
6HR MIN TEMP:   9; 6HR MAX TEMP:  12; 6HR PCP: TRACE;

ST. JOHNSBURY*   N/A     11   4  73 MISG      29.39R
6HR MIN TEMP:  11; 6HR MAX TEMP:  15;

LYNDONVILLE*   CLOUDY     8   2  76 SW13G20   29.37R HAZE    WCI  -7
6HR MIN TEMP:   7; 6HR MAX TEMP:  11;

MIDDLEBURY*    CLOUDY    12   6  77 CALM      29.49R
6HR MIN TEMP:  12; 6HR MAX TEMP:  17;

RUTLAND*       CLOUDY    14   5  67 W10G21    29.47R WCI   1
6HR MIN TEMP:  14; 6HR MAX TEMP:  18; 6HR PCP: TRACE;

SPRINGFIELD    PTCLDY    17   6  62 VRB3      29.43R
6HR MIN TEMP:  16; 6HR MAX TEMP:  19; 6HR PCP:  0.03;

HIGHGATE*      FAIR      10   1  67 W7        29.48R WCI   0
6HR MIN TEMP:  10; 6HR MAX TEMP:  11;

NEWPORT*       LGT SNOW   8   2  78 SW8       29.39R WCI  -5
6HR MIN TEMP:   7; 6HR MAX TEMP:  10;

BENNINGTON     FLURRIES  18  10  71 W10G22    29.51  WCI   6
6HR MIN TEMP:  17; 6HR MAX TEMP:  19; 6HR PCP: TRACE;

SUTTON*          N/A      5 N/A N/A MISG        N/A
GALLUP MILLS*    N/A      7 N/A N/A MISG        N/A
MT. MANSFIELD*   N/A      0 N/A N/A CALM        N/A

_____LAKE CHAMPLAIN_____


CITY           SKY/WX    TMP DP  RH WIND       PRES   REMARKS
BURTON ISLAND*   N/A     18  10  73 N18G26      N/A  WCI   2
COLCHESTER RF*   N/A     18   7  62 W21G29      N/A  WCI   1
DIAMOND ISL*     N/A     19   5  53 SW10G18     N/A  WCI   8

$$

NYZ007-026>031-035-052-083-087-140100-
_____NORTHERN NEW YORK_____


CITY           SKY/WX    TMP DP  RH WIND       PRES   REMARKS
PLATTSBURGH    CLEAR     12   1  61 W8G18     29.47  WCI   0
6HR MIN TEMP:  12; 6HR MAX TEMP:  15;

SARANAC LAKE   CLOUDY     5   2  87 VRB7      29.42R WCI  -7
6HR MIN TEMP:   5; 6HR MAX TEMP:   6; 6HR PCP: TRACE;

MASSENA        CLEAR      9  -2  61 W10G20    29.57R WCI  -5
6HR MIN TEMP:   9; 6HR MAX TEMP:  11; 6HR PCP: TRACE;

OGDENSBURG*    FAIR      10   0  66 NW8       29.59R WCI  -2
6HR MIN TEMP:   9; 6HR MAX TEMP:  17;

POTSDAM*       MOCLDY     5   0  78 W7        29.56R WCI  -7
WATERTOWN      CLEAR      6   4  91 CALM      29.61S
6HR MIN TEMP:   6; 6HR MAX TEMP:  15; 6HR PCP: TRACE;

FT DRUM        CLEAR      8   1  73 W7        29.56S WCI  -3
6HR MIN TEMP:   7; 6HR MAX TEMP:  12;

ALBANY         FLURRIES  21   7  54 W23G32    29.60R WCI   5
6HR MIN TEMP:  20; 6HR MAX TEMP:  22; 6HR PCP: TRACE;

GLENS FALLS    PTCLDY    13   5  70 VRB3      29.55R
6HR MIN TEMP:  10; 6HR MAX TEMP:  21;


$$
NHZ002-005-011-140100-
_____NEW HAMPSHIRE_____


CITY           SKY/WX    TMP DP  RH WIND       PRES   REMARKS
LEBANON        CLEAR     16   5  62 VRB6G18   29.42R WCI   7
6HR MIN TEMP:  16; 6HR MAX TEMP:  20;

KEENE          CLEAR     14   8  77 W8        29.46R WCI   3
6HR MIN TEMP:  14; 6HR MAX TEMP:  23; 6HR PCP:  0.01;

MT WASHINGTON  BLWGSNOW -15 -15 100 W85G91      N/A  VSB 0   WCI -58
6HR MIN TEMP: -15; 6HR MAX TEMP:  -9; 6HR PCP:  0.01;

PLYMOUTH       LGT SNOW  15  10  79 W6G16     29.38R WCI   6
6HR MIN TEMP:  15; 6HR MAX TEMP:  20;

WHITEFIELD     CLOUDY    10   1  67 W14G24    29.36R WCI  -6
6HR MIN TEMP:  10; 6HR MAX TEMP:  14; 6HR PCP:  0.01;


$$

_____REGIONAL QUEBEC LOCATIONS_____


CITY           SKY/WX    TMP DP  RH WIND       PRES   REMARKS
MONTREAL       PTCLDY     9   0  66 W22G30    29.46R WCI -11
QUEBEC CITY    FLURRIES   9   3  78 W22G29    29.18R WCI -11
SHERBROOKE     LGT SNOW   9   1  72 W20G29    29.30R WCI -11

_____REGIONAL ONTARIO LOCATIONS_____


CITY           SKY/WX    TMP DP  RH WIND       PRES   REMARKS
OTTAWA         CLEAR      7  -2  66 W16G28    29.54S WCI -11

______KEY______
VSB  - VISIBILITY IN MILES
WCI  - WIND CHILL INDEX
HX   - HEAT INDEX
$$
NNNN



USA.gov is the U.S. government's official web portal to all federal, state and local government web resources and services.